Regional Weather Roundup
Issued by NWS Jackson, KY

Home | Current Version | Previous Version | Text Only | Print | Product List | Glossary Off
Versions: 1 2 3 4 5 6 7 8 9 10 11 12 13 14 15 16 17 18 19 20 21 22 23 24 25 26 27

000
ASUS43 KJKL 241410
RWRJKL

EAST KENTUCKY HOURLY WEATHER ROUNDUP
NATIONAL WEATHER SERVICE JACKSON KY
1000 AM EDT SAT JUN 24 2017

NOTE: "FAIR" INDICATES FEW OR NO CLOUDS BELOW 12,000 FEET WITH
NO SIGNIFICANT WEATHER AND/OR OBSTRUCTIONS TO VISIBILITY.

* THESE REPORTS ARE NOT UNDER NWS QUALITY CONTROL AND MAY NOT
  REPORT WEATHER SUCH AS PRECIPITATION AND FOG.

KYZ079-080-083-085-087-088-110-112-115-119-120-241500
...EASTERN KENTUCKY...

CITY           SKY/WX    TMP DP  RH WIND       PRES   REMARKS
JACKSON        MOSUNNY   70  66  87 CALM      30.01S
LONDON         MOSUNNY   73  63  70 W6        30.01S
SOMERSET*      MOSUNNY   72  63  73 W3        30.03S
MONTICELLO*    PTSUNNY   75  66  73 NW6       30.04R
WILLIAMSBURG*  MOSUNNY   73  68  83 W3        30.02S
MIDDLESBORO*   CLOUDY    71  69  93 CALM      30.01F
HARLAN APT*    CLOUDY    70  64  83 CALM      30.03R
PIKE CO APT*   CLOUDY    66  66 100 W3        30.01S FOG
BIG SANDY APT* CLOUDY    69  67  96 CALM      30.01R
MOREHEAD APT*  MOSUNNY   72  64  78 CALM      30.02S HAZE
$$

KYZ035-036-041-042-044-050-067-078-099-241500
...CENTRAL KENTUCKY...

CITY           SKY/WX    TMP DP  RH WIND       PRES   REMARKS
DANVILLE*      MOSUNNY   70  63  78 NW5       30.04S
LEXINGTON      MOSUNNY   71  62  73 W6        30.01S
FRANKFORT      SUNNY     71  61  70 NW5       30.00R
LOUISVILLE     MOSUNNY   73  60  63 NW6       30.02R
LEBANON*         N/A    N/A N/A N/A MISG        N/A
GLASGOW*       MOSUNNY   73  65  78 W6        30.03R
BOWLING GREEN  SUNNY     73  64  73 N6        30.04R
$$

KYZ091>093-OHZ055-061-077-WVZ005-015-034-035-042-241500
...SOUTHERN OHIO/WEST VIRGINIA...

CITY           SKY/WX    TMP DP  RH WIND       PRES   REMARKS
COVINGTON      MOSUNNY   69  62  78 W9        29.99R
COLUMBUS       PTSUNNY   70  63  78 W8        29.93R
DAYTON         MOSUNNY   69  58  67 NW10      29.97R
WILMINGTON     SUNNY     69  62  78 W9        29.97R
HUNTINGTON     MOSUNNY   71  65  81 W5        29.98R
CHARLESTON     PTSUNNY   72  64  76 SW9       29.98R
PINEVILLE*     CLOUDY    68  64  88 MISG      30.06S
BECKLEY        CLOUDY    66  61  84 W8        30.03S
BLUEFIELD      LGT RAIN  63  60  90 W8        30.06R FOG
LOGAN CO APT*  CLOUDY    68  66  94 CALM      30.01R
$$

VAZ002-007-008-TNZ017-027-036-066-071-241500
...SOUTHWEST VIRGINIA/EAST TENNESSEE...

CITY           SKY/WX    TMP DP  RH WIND       PRES   REMARKS
WISE*          CLOUDY    70  70 100 CALM      30.07S
JONESVILLE*      N/A     72  66  83 CALM      30.03S
ABINGDON*      CLOUDY    69  67  92 CALM      30.03S
BRISTOL        LGT RAIN  68  66  93 CALM      30.01F
MORRISTOWN*    CLOUDY    72  70  94 CALM      30.00R
KNOXVILLE      LGT RAIN  75  71  87 SW6       29.99R
LAFOLLETTE*    PTSUNNY   75  72  88 CALM      30.04R
OAK RIDGE      CLOUDY    73  70  90 CALM      30.01R
CROSSVILLE     CLOUDY    73  68  84 N7        30.06R
NASHVILLE      PTSUNNY   78  65  63 VRB6      30.04R
$$

...KEY TO REMARKS...
VSB - VISIBILITY IN MILES
WCI - WIND CHILL INDEX
HX  - HEAT INDEX

$$




USA.gov is the U.S. government's official web portal to all federal, state and local government web resources and services.